1998-067LZ

Last updated on Thu May 25 2017 00:15:03 GMT+0000 (Coordinated Universal Time)

1 42718U 98067LZ 17143.36276104 .00006335 00000-0 10000-3 0 9998 2 42718 51.6402 162.0211 0002443 270.0307 226.5142 15.54914189 17

Satellite not in orbit

1998-067LZ